• In France
  • List of Countries
  • For 7 days
  • Water Temperature
  • Satellite Maps
  • Weather Map
  • Weather Widgets
  • user-avatar
    Login

    Hourly Weather Kiszewy

    Today, 20 June, Wednesday

    Time Temperature Precipitation Wind Pressure Humidity
    00:00 +17°C° 0 mm 2 mps 756 mmHg 84%
    01:00 +18°C° 0 mm 1 mps 756 mmHg 86%
    02:00 +16°C° 0 mm 1 mps 756 mmHg 87%
    03:00 +16°C° 0 mm 1 mps 756 mmHg 89%
    04:00 +16°C° 0 mm 1 mps 756 mmHg 90%
    05:00 +18°C° 0 mm 1 mps 756 mmHg 85%
    06:00 +19°C° 0 mm 2 mps 756 mmHg 80%
    07:00 +21°C° 0 mm 2 mps 756 mmHg 75%
    08:00 +23°C° 0 mm 2 mps 756 mmHg 69%
    09:00 +24°C° 0 mm 2 mps 756 mmHg 64%
    10:00 +25°C° 0 mm 3 mps 756 mmHg 59%
    11:00 +26°C° 0 mm 3 mps 756 mmHg 57%
    12:00 +26°C° 0 mm 3 mps 755 mmHg 56%
    13:00 +27°C° 0 mm 3 mps 755 mmHg 54%
    14:00 +27°C° 0 mm 3 mps 755 mmHg 55%
    15:00 +27°C° 0 mm 2 mps 754 mmHg 56%
    16:00 +27°C° 0 mm 2 mps 754 mmHg 56%
    17:00 +26°C° 0 mm 2 mps 754 mmHg 61%
    18:00 +26°C° 0 mm 1 mps 753 mmHg 65%
    19:00 +25°C° 0 mm 1 mps 753 mmHg 69%
    20:00 +24°C° 0 mm 1 mps 753 mmHg 71%
    21:00 +23°C° 0 mm 1 mps 753 mmHg 73%
    22:00 +22°C° 0 mm 1 mps 753 mmHg 74%
    23:00 +21°C° 0 mm 2 mps 753 mmHg 74%

    Tomorrow, 21 June, Thursday

    Time Temperature Precipitation Wind Pressure Humidity
    00:00 +21°C° 0 mm 2 mps 752 mmHg 74%
    01:00 +21°C° 0 mm 3 mps 752 mmHg 73%
    02:00 +20°C° 0 mm 3 mps 752 mmHg 75%
    03:00 +20°C° 0 mm 3 mps 751 mmHg 77%
    04:00 +19°C° 0 mm 3 mps 751 mmHg 80%
    05:00 +21°C° 0 mm 3 mps 750 mmHg 77%
    06:00 +22°C° 0 mm 4 mps 750 mmHg 75%
    07:00 +23°C° 0 mm 4 mps 750 mmHg 72%
    08:00 +26°C° 0.1 mm 4 mps 749 mmHg 67%
    09:00 +27°C° 0.1 mm 4 mps 749 mmHg 62%
    10:00 +28°C° 0.1 mm 4 mps 748 mmHg 56%
    11:00 +29°C° 0.1 mm 5 mps 747 mmHg 55%
    12:00 +29°C° 0.1 mm 5 mps 746 mmHg 53%
    13:00 +30°C° 0.1 mm 6 mps 745 mmHg 52%
    14:00 +29°C° 0.2 mm 5 mps 745 mmHg 54%
    15:00 +29°C° 0.2 mm 5 mps 744 mmHg 57%
    16:00 +28°C° 0.2 mm 5 mps 744 mmHg 60%
    17:00 +26°C° 0.5 mm 6 mps 744 mmHg 67%
    18:00 +22°C° 0.5 mm 7 mps 744 mmHg 74%
    19:00 +18°C° 0.5 mm 8 mps 744 mmHg 81%
    20:00 +17°C° 0.1 mm 7 mps 745 mmHg 80%
    21:00 +15°C° 0.1 mm 7 mps 746 mmHg 80%
    22:00 +14°C° 0.1 mm 6 mps 747 mmHg 79%
    23:00 +13°C° 0 mm 6 mps 748 mmHg 77%

    Day after tomorrow, 22 June, Friday

    Time Temperature Precipitation Wind Pressure Humidity
    00:00 +11°C° 0 mm 6 mps 748 mmHg 74%
    01:00 +10°C° 0 mm 5 mps 748 mmHg 72%
    02:00 +9°C° 0 mm 5 mps 749 mmHg 74%
    03:00 +9°C° 0 mm 5 mps 749 mmHg 75%
    04:00 +8°C° 0 mm 5 mps 749 mmHg 76%
    05:00 +9°C° 0 mm 6 mps 749 mmHg 73%
    06:00 +10°C° 0 mm 7 mps 749 mmHg 69%
    07:00 +11°C° 0 mm 8 mps 750 mmHg 65%
    08:00 +12°C° 0 mm 8 mps 750 mmHg 64%
    09:00 +12°C° 0 mm 8 mps 750 mmHg 64%
    10:00 +12°C° 0 mm 8 mps 750 mmHg 63%
    11:00 +13°C° 0 mm 8 mps 750 mmHg 62%
    12:00 +13°C° 0 mm 8 mps 750 mmHg 61%
    13:00 +13°C° 0 mm 8 mps 750 mmHg 60%
    14:00 +15°C° 0.2 mm 7 mps 750 mmHg 60%
    15:00 +15°C° 0.2 mm 7 mps 750 mmHg 60%
    16:00 +16°C° 0.2 mm 6 mps 750 mmHg 60%
    17:00 +15°C° 0.2 mm 5 mps 750 mmHg 66%
    18:00 +15°C° 0.2 mm 4 mps 750 mmHg 72%
    19:00 +14°C° 0.2 mm 3 mps 750 mmHg 77%
    20:00 +13°C° 0 mm 3 mps 750 mmHg 81%
    21:00 +12°C° 0 mm 3 mps 750 mmHg 85%
    22:00 +10°C° 0 mm 3 mps 751 mmHg 89%
    23:00 +10°C° 0 mm 3 mps 750 mmHg 88%

    23 June, Saturday

    Time Temperature Precipitation Wind Pressure Humidity
    00:00 +10°C° 0 mm 4 mps 750 mmHg 88%
    01:00 +10°C° 0 mm 4 mps 750 mmHg 87%
    02:00 +10°C° 0.1 mm 4 mps 750 mmHg 88%
    03:00 +10°C° 0.1 mm 4 mps 750 mmHg 90%
    04:00 +9°C° 0.1 mm 5 mps 750 mmHg 91%
    05:00 +10°C° 0 mm 5 mps 750 mmHg 88%
    06:00 +10°C° 0 mm 6 mps 751 mmHg 85%
    07:00 +11°C° 0 mm 6 mps 751 mmHg 82%
    08:00 +13°C° 0.1 mm 6 mps 751 mmHg 79%
    09:00 +13°C° 0.1 mm 6 mps 751 mmHg 76%
    10:00 +14°C° 0.1 mm 6 mps 751 mmHg 73%
    11:00 +15°C° 0.3 mm 6 mps 751 mmHg 70%
    12:00 +15°C° 0.3 mm 6 mps 751 mmHg 68%
    13:00 +16°C° 0.3 mm 6 mps 751 mmHg 66%
    14:00 +16°C° 0.3 mm 6 mps 751 mmHg 66%
    15:00 +16°C° 0.3 mm 6 mps 751 mmHg 66%
    16:00 +16°C° 0.3 mm 6 mps 751 mmHg 66%
    17:00 +16°C° 0.1 mm 5 mps 751 mmHg 68%
    18:00 +15°C° 0.1 mm 5 mps 751 mmHg 71%
    19:00 +14°C° 0.1 mm 4 mps 751 mmHg 74%
    20:00 +13°C° 0 mm 4 mps 751 mmHg 78%
    21:00 +12°C° 0 mm 4 mps 751 mmHg 82%
    22:00 +11°C° 0 mm 4 mps 752 mmHg 86%
    23:00 +11°C° 0.1 mm 4 mps 752 mmHg 89%

    24 June, Sunday

    Time Temperature Precipitation Wind Pressure Humidity
    00:00 +11°C° 0.1 mm 4 mps 752 mmHg 91%
    01:00 +10°C° 0.1 mm 4 mps 752 mmHg 93%
    02:00 +10°C° 0.1 mm 4 mps 752 mmHg 94%
    03:00 +10°C° 0.1 mm 4 mps 752 mmHg 95%
    04:00 +10°C° 0.1 mm 3 mps 752 mmHg 97%
    05:00 +11°C° 0 mm 4 mps 752 mmHg 93%
    06:00 +12°C° 0 mm 4 mps 752 mmHg 90%
    07:00 +13°C° 0 mm 4 mps 753 mmHg 87%
    08:00 +15°C° 0.1 mm 4 mps 753 mmHg 78%
    09:00 +17°C° 0.1 mm 4 mps 753 mmHg 69%
    10:00 +19°C° 0.1 mm 5 mps 753 mmHg 60%
    11:00 +19°C° 0.1 mm 5 mps 753 mmHg 58%
    12:00 +20°C° 0.1 mm 4 mps 753 mmHg 56%
    13:00 +20°C° 0.1 mm 4 mps 753 mmHg 54%
    14:00 +21°C° 0.1 mm 4 mps 753 mmHg 54%
    15:00 +21°C° 0.1 mm 4 mps 753 mmHg 54%
    16:00 +21°C° 0.1 mm 4 mps 753 mmHg 53%
    17:00 +20°C° 0.1 mm 4 mps 753 mmHg 60%
    18:00 +19°C° 0.1 mm 3 mps 753 mmHg 66%
    19:00 +18°C° 0.1 mm 2 mps 753 mmHg 72%
    20:00 +17°C° 0.1 mm 2 mps 753 mmHg 75%
    21:00 +16°C° 0.1 mm 2 mps 754 mmHg 79%
    22:00 +14°C° 0.1 mm 2 mps 754 mmHg 82%
    23:00 +14°C° 0 mm 2 mps 754 mmHg 83%

    25 June, Monday

    Time Temperature Precipitation Wind Pressure Humidity
    00:00 +13°C° 0 mm 2 mps 754 mmHg 84%
    01:00 +13°C° 0 mm 2 mps 754 mmHg 84%
    02:00 +12°C° 0 mm 2 mps 754 mmHg 85%
    03:00 +12°C° 0 mm 2 mps 754 mmHg 85%
    04:00 +12°C° 0 mm 2 mps 754 mmHg 85%
    05:00 +13°C° 0 mm 2 mps 754 mmHg 80%
    06:00 +15°C° 0 mm 2 mps 754 mmHg 75%
    07:00 +17°C° 0 mm 2 mps 754 mmHg 71%
    08:00 +18°C° 0 mm 3 mps 754 mmHg 66%
    09:00 +20°C° 0 mm 3 mps 754 mmHg 61%
    10:00 +21°C° 0 mm 4 mps 754 mmHg 57%
    11:00 +21°C° 0.2 mm 4 mps 754 mmHg 56%
    12:00 +22°C° 0.2 mm 4 mps 754 mmHg 55%
    13:00 +22°C° 0.2 mm 5 mps 754 mmHg 54%
    14:00 +22°C° 0.1 mm 5 mps 754 mmHg 56%
    15:00 +21°C° 0.1 mm 5 mps 753 mmHg 58%
    16:00 +21°C° 0.1 mm 4 mps 753 mmHg 60%
    17:00 +20°C° 0 mm 4 mps 753 mmHg 64%
    18:00 +20°C° 0 mm 3 mps 754 mmHg 68%
    19:00 +19°C° 0 mm 3 mps 754 mmHg 72%
    20:00 +18°C° 0 mm 3 mps 754 mmHg 75%
    21:00 +17°C° 0 mm 2 mps 754 mmHg 79%
    22:00 +16°C° 0 mm 2 mps 754 mmHg 82%
    23:00 +16°C° 0 mm 2 mps 754 mmHg 83%
    Show more